ATLAS CENTAUR 2 DEB, 19638

Orbit data source: Space-Track

ATLAS CENTAUR 2 DEB, 19638 is space debris in LEO originally from a launch on Wed, 27 Nov 1963 UTC launched from the Air Force Eastern Test Range (AFETR). Debris objects in space refer to the collection of defunct objects orbiting the Earth. Examples of debris include non-operational satellites, rocket bodies, and fragments generated from explosions, collisions, or faulty payload assembly.

Loading next visibility...
ATLAS CENTAUR 2 DEB details
Identifier
19638, 1963-047S
Orbit
LEO
Last TLE update23 hours ago
Origin
Flag of USNASA LeRC (US)
ManufacturerUnknown
MissionSpacecraft
Bus & MotorUnknown
MassUnknown
Launch date (UTC)
1963-11-27 (61 years ago)
Launch vehicleUnknown
Launch site
Air Force Eastern Test Range (AFETR)
Object type
Payload
Rocket body
Debris
Shape & HBRUnknown
Radar Cross SectionSmall (<0.1 m²)

Expand to show TLE details & history

TLE from 23 hours ago
0 ATLAS CENTAUR 2 DEB
1 19638U 63047S   24356.32811583  .00010910  00000-0  33259-1 0  9992
2 19638  31.0041   7.4551 0626898 294.1766 178.6834 12.52516501506426
Epoch: 2024-12-21T07:52Z
Definitive object data (Epoch: 2024-12-21T07:52:29.207Z)
Latitude28.40729°
Longitude-84.66754°
Altitude1,944.061 km
Speed6.706 km/s
True Right ascension08h 15m 20s
True Declination28° 17' 03"
Sunlit
Object was in full shadow at TLE epoch
Visualization TLE readout
Latitude25.23924°
Longitude-153.68702°
Altitude1,636.004 km
Speed6.975 km/s
Apparent Right ascension01h 04m 59s
Apparent Declination-10° 02' 19"
Sunlit
Object is in full shadow
Visualization observer readout
Local Sidereal Time05:34:28
Azimuth247.484° WSW
Elevation10.295°
Doppler factor1
Orbital elements
Apogee altitude1,948.606 km
Perigee altitude966.19 km
Semi-major axis7,835.535 km
Eccentricity0.0626898
Inclination31.0041°
RAAN7.4551°
Arg. of periapsis294.1766°
True anomaly178.83644°
Mean anomaly178.6834°
Eccentric anomaly178.76106°
Mean motion3.12925 °/min
BSTAR0.033259
Orbital period115.04 mins
Loading maneuver chart data...

ATLAS CENTAUR 2 DEB Visibility forecast

Observer location: undefined°, undefined

Span
Click to sort rows by Start time (UTC) header in descending order
Start Az.
Max El. time (UTC)
Max El. Az.
Max El.
End time (UTC)
End Az.
21 mins2024-12-22 06:29:42.812Z247.337° WSW2024-12-22 06:39:42.812Z173.92° S38.741°2024-12-22 06:50:42.812Z103.243° ESE
20 mins2024-12-22 08:33:42.812Z259.17° W2024-12-22 08:42:42.812Z195.838° SSW36.929°2024-12-22 08:53:42.812Z124.014° SE
17 mins2024-12-22 10:37:42.812Z257.801° W2024-12-22 10:45:42.812Z209.86° SW25.857°2024-12-22 10:54:42.812Z156.456° SSE
13 mins2024-12-23 03:26:42.812Z193.253° SSW2024-12-23 03:31:42.812Z151.425° SSE24.72°2024-12-23 03:39:42.812Z99.643° ESE
18 mins2024-12-23 05:26:42.812Z233.143° WSW2024-12-23 05:33:42.812Z173.263° S36.84°2024-12-23 05:44:42.812Z98.863° ESE
|